Overview Statistics Trail Chart Weather Telemetry Raw packets
 

This is the latest recevied weather packets stored in our database for station/object K6POO-1. If no packets are shown the sender has not sent any weather packets the latest 10 day(s).

<< 42 43 44 45 46 47 48 >>
Time Temp. Humidity Pressure Rain* Wind** Luminosity Snow
1788399520 17.78° C 77% 1016.4 hPa 0 mm - 44 W/m² -
1788399219 18.33° C 76% 1016.4 hPa 0 mm - 46 W/m² -
1788398919 18.33° C 74% 1016.4 hPa 0 mm - 52 W/m² -
1788398613 18.89° C 74% 1016.4 hPa 0 mm - 56 W/m² -
1788398307 18.89° C 73% 1016.4 hPa 0 mm - 61 W/m² -
1788398007 18.89° C 71% 1016.4 hPa 0 mm - 73 W/m² -
1788397702 19.44° C 71% 1016.4 hPa 0 mm - 82 W/m² -
1788397398 19.44° C 69% 1016.2 hPa 0 mm - 87 W/m² -
1788397096 19.44° C 70% 1016.4 hPa 0 mm - 109 W/m² -
1788396791 19.44° C 72% 1016.3 hPa 0 mm - 123 W/m² -
1788396487 19.44° C 71% 1016.5 hPa 0 mm - 137 W/m² -
1788396182 19.44° C 71% 1016.4 hPa 0 mm - 158 W/m² -
1788395878 19.44° C 71% 1016.6 hPa 0 mm - 170 W/m² -
1788395572 19.44° C 71% 1016.6 hPa 0 mm - 185 W/m² -
1788395267 19.44° C 70% 1016.5 hPa 0 mm - 202 W/m² -
1788394961 20° C 69% 1016.5 hPa 0 mm - 217 W/m² -
1788394657 19.44° C 69% 1016.7 hPa 0 mm - 236 W/m² -
1788394356 20° C 69% 1016.7 hPa 0 mm - 250 W/m² -
1788394052 20° C 67% 1016.6 hPa 0 mm - 269 W/m² -
1788393751 20° C 69% 1016.8 hPa 0 mm - 290 W/m² -
1788393450 20° C 69% 1016.9 hPa 0 mm - 304 W/m² -
1788393145 20° C 69% 1016.7 hPa 0 mm - 314 W/m² -
1788392844 19.44° C 70% 1016.9 hPa 0 mm - 311 W/m² -
1788392543 19.44° C 69% 1016.6 hPa 0 mm - 339 W/m² -
1788392237 19.44° C 69% 1016.8 hPa 0 mm - 355 W/m² -

* Rain latest hour (hover to see other rain measurements)
** Current wind speed in m/s (hover to see current wind gust speed)